Location: Pulvis Stellarum Observatory
(41.6962°N, 71.4263°W)
Time: 02:51:39
(UTC-05:00)

Cosmos 1758 - Visible Passes

Search period start: 22 December 2014 00:00
Search period end: 01 January 2015 00:00
Orbit: 549 x 572 km, 82.5° (Epoch: 21 December)

Date Brightness Start Highest point End Pass type
(mag) Time Alt. Az. Time Alt. Az. Time Alt. Az.
22 Dec 6.6 05:52:36 10° ESE 05:54:04 12° E 05:55:33 10° ENE visible
22 Dec 4.2 17:27:10 10° NNE 17:30:49 29° ENE 17:34:26 10° SE visible
22 Dec 5.9 19:04:10 10° NW 19:07:16 21° W 19:10:21 10° SW visible
23 Dec 6.5 05:50:49 10° ESE 05:52:58 14° E 05:55:08 10° NE visible
23 Dec 4.0 17:26:02 10° N 17:29:51 34° ENE 17:33:37 10° SE visible
23 Dec 6.2 19:03:26 10° NW 19:06:11 18° W 19:08:56 10° SW visible
24 Dec 6.4 05:49:15 10° SE 05:51:52 17° E 05:54:31 10° NE visible
24 Dec 3.7 17:24:54 10° N 17:28:51 41° ENE 17:32:45 10° SSE visible
24 Dec 6.4 19:02:46 10° NW 19:05:05 15° W 19:07:24 10° WSW visible
25 Dec 6.2 05:47:48 10° SE 05:50:46 20° E 05:53:47 10° NE visible
25 Dec 3.5 17:23:47 10° N 17:27:50 49° E 17:31:49 10° SSE visible
25 Dec 6.6 19:02:15 10° WNW 19:03:58 12° W 19:05:41 10° WSW visible
26 Dec 5.9 05:46:24 10° SE 05:49:40 23° E 05:52:58 10° NE visible
26 Dec 3.4 17:22:41 10° N 17:26:48 60° E 17:30:51 10° SSE visible
26 Dec 6.8 19:02:17 10° WNW 19:02:50 10° W 19:03:23 10° W visible
27 Dec 5.6 05:45:04 10° SSE 05:48:34 28° E 05:52:05 10° NNE visible
27 Dec 3.3 17:21:36 10° N 17:25:45 73° E 17:29:50 10° SSE visible
28 Dec 5.2 05:43:47 10° SSE 05:47:27 33° E 05:51:10 10° NNE visible
28 Dec 3.3 17:20:31 10° N 17:24:40 87° E 17:28:47 10° S visible
29 Dec 4.9 05:42:31 10° SSE 05:46:20 39° E 05:50:12 10° NNE visible
29 Dec 3.5 17:19:27 10° N 17:23:35 78° W 17:27:40 10° S visible
30 Dec 4.4 05:41:17 10° SSE 05:45:13 47° E 05:49:12 10° NNE visible
30 Dec 3.9 17:18:23 10° NNW 17:22:29 64° W 17:26:32 10° S visible
31 Dec 4.0 05:40:05 10° S 05:44:06 58° E 05:48:10 10° NNE visible
31 Dec 4.3 17:17:20 10° NNW 17:21:22 53° W 17:25:21 10° S visible
